Regional Weather Roundup
Issued by NWS

Home | Current Version | Previous Version | Text Only | Print | Product List | Glossary On
Versions: 1 2 3 4 5 6 7 8 9 10 11 12 13 14 15 16 17 18 19 20 21 22 23 24 25 26 27 28 29 30 31 32 33 34 35 36 37 38 39 40 41 42 43 44 45 46 47 48 49 50
000
ASUS45 KCYS 191510
RWRWY

WYOMING REGIONAL WEATHER ROUNDUP
NATIONAL WEATHER SERVICE CHEYENNE WY
900 AM MDT TUE SEP 19 2017

NOTE:  "FAIR" INDICATES FEW OR NO CLOUDS BELOW 12,000 FEET
WITH NO SIGNIFICANT WEATHER AND/OR OBSTRUCTIONS TO VISIBILITY.

WYZ001-191600-
YELLOWSTONE NATIONAL PARK

CITY           SKY/WX    TMP DP  RH WIND       PRES   REMARKS
LK YELLOWSTONE   N/A     31  30  96 VRB7G21   29.76R WCI  24
W YELLOWSTONE  NOT AVBL

$$
WYZ002>013-054>058-071-098>099-191600-
NORTHERN WYOMING

CITY           SKY/WX    TMP DP  RH WIND       PRES   REMARKS
JACKSON        CLOUDY    37  33  85 S14       29.81R WCI  28
CODY           FAIR      42  38  85 NE6       29.67F
GREYBULL       CLOUDY    48  44  86 NW20      29.63R
WORLAND        CLOUDY    52  50  93 W7        29.62R
SHERIDAN       LGT RAIN  48  45  89 NW18      29.66R
BUFFALO        CLOUDY    49  39  68 NW18G25   29.65R
GILLETTE       CLOUDY    55  47  74 E3        29.58F
HULETT         CLOUDY    55  45  67 S3        29.62F
NEWCASTLE      FAIR      59  41  51 SE7       29.64R

$$
WYZ014>020-022>026-101>103-191600-
CENTRAL WYOMING

CITY           SKY/WX    TMP DP  RH WIND       PRES   REMARKS
BIG PINEY      LGT RAIN  37  34  89 NW13      29.87R WCI  29
PINEDALE       CLOUDY    36  34  93 NW16      29.86R WCI  26
DUBOIS         CLOUDY    34  30  86 W21G31    29.76F WCI  22
LANDER           N/A    N/A N/A N/A MISG      29.72R
RIVERTON       LGT RAIN  46  40  79 NW17G25   29.71R
CASPER         PTSUNNY   55  42  61 S8        29.68F
DOUGLAS        FAIR      58  41  53 NW13      29.69S

$$
WYZ021-027>030-104>119-191600-
SOUTHERN WYOMING

CITY           SKY/WX    TMP DP  RH WIND       PRES   REMARKS
EVANSTON       CLOUDY    37  36  96 NW14      29.89R WCI  28
KEMMERER       LGT SNOW  34  32  93 W24G33    29.88R WCI  21
FORT BRIDGER   LGT SNOW  35  35 100 NW10      29.91R WCI  27
ROCK SPRINGS   LGT RAIN  47  39  74 W20G29    29.81R
DIXON          PTSUNNY   62  20  20 S22G33    29.81S
RAWLINS        FAIR      53  38  56 W18       29.77F
SARATOGA       FAIR      63  21  20 SW29G40   29.76F
LARAMIE        FAIR      61  18  18 S15G21    29.79F
CHEYENNE       FAIR      63  26  24 SW12      29.76S
TORRINGTON     FAIR      54  50  86 NE6       29.63S
PINE BLUFFS    FAIR      48  43  81 S3        29.72S

$$



USA.gov is the U.S. government's official web portal to all federal, state and local government web resources and services.